Weather in Nikologory

Russia / Vladimir Oblast     56°08′25″N   41°59′37″E
temp.,
°C
wind,
m/s
gust,
m/s
humid.,
%
clouds,
%
prec.,
mm/h
press.,
hPa
HPBL,
m
19 june, sat
sat1900:00+15ssw39813 0.0 1026154
03:00+14sw37875 0.0 1026127
06:00+17wsw397845 0.0 1026259
09:00+23wsw4755100 0.0 1025750
12:00+27w464229 0.0 10241487
15:00+28w464211 0.0 10231568
18:00+25wnw37545 0.0 1022667
21:00+20wsw23724 0.0 102337
20 june, sun
sun2000:00+17wsw38815 0.0 1023131
03:00+16w37900 0.0 1024115
06:00+19wsw25800 0.0 1024164
09:00+25wsw23571 0.0 1023618
12:00+28wsw23435 0.0 10231496
15:00+30w23390 0.0 10221830
18:00+28wnw13560 0.0 1021209
21:00+21nne00790 0.0 102111
21 june, mon
mon2100:00+19sw22845 0.0 102213
03:00+17w22945 0.0 102244
06:00+21wsw238249 0.0 1022133
09:00+25sw235999 0.0 1022670
12:00+29ssw2343100 0.0 10221478
15:00+30sw234076 0.0 10211706
18:00+28s3561100 0.0 1021408
21:00+21ssw2280100 0.0 102121
22 june, tue
tue2200:00+20sw2382100 0.0 102249
03:00+18sw228756 0.0 102232
06:00+21sw1279100 0.0 102382
09:00+26ssw126296 0.0 1023515
12:00+30s234410 0.0 10221692
15:00+31sse34400 0.0 10212118
18:00+29sse355831 0.0 1020400
21:00+23s22770 0.0 102116
23 june, wed
wed2300:00+20sw22860 0.0 102116
03:00+20nw12872 0.7 102215
06:00+22wnw25833 0.0 1022169
09:00+28w12562 0.0 1022654
12:00+32wsw12425 0.0 10211884
15:00+33s123722 0.0 10212557
18:00+29w026168 0.0 102078
21:00+24ssw22740 0.0 102118